Location: Carnoy
(49.9849°N, 2.7558°E)
Time: 21:58:15
(UTC+00:00)

PSLV R/B - Pass Details

Date: 24 January 2020
Orbit: 568 x 599 km, 98.2° (Epoch: 17 February)

Event Time Altitude Azimuth Distance (km) Brightness Sun altitude
Rises 17:00:45 0° 16° (NNE) 2,787 7.0 -5.4°
Reaches altitude 10° 17:02:56 10° 20° (NNE) 1,887 6.2 -5.7°
Maximum altitude 17:06:59 65° 102° (ESE) 634 3.9 -6.3°
Drops below altitude 10° 17:11:03 10° 185° (S) 1,886 6.9 -6.9°
Sets 17:13:13 0° 189° (S) 2,785 7.9 -7.3°
